Regional Weather Roundup
Issued by NWS

Home | Current Version | Previous Version | Graphics & Text | Print | Product List | Glossary On
Versions: 1 2 3 4 5 6 7 8 9 10 11 12 13 14 15 16 17 18 19 20 21 22 23 24 25 26 27 28 29 30 31 32 33 34 35 36 37 38 39 40 41 42 43 44 45 46 47 48 49 50
000
ASUS44 KMEG 221510
RWRTN
TENNESSEE HOURLY STATE WEATHER ROUNDUP
NATIONAL WEATHER SERVICE MEMPHIS TN
1000 AM CDT TUE JUL 22 2014

TNZ002-004-019-021-049-052-054-088>092-221600-
WEST TENNESSEE

CITY           SKY/WX    TMP DP  RH WIND       PRES   REMARKS
MEMPHIS INTL   SUNNY     84  68  58 VRB3      30.09S
NWS MEMPHIS      N/A     82 N/A N/A MISG        N/A
JACKSON        SUNNY     81  71  71 CALM      30.09F
DYERSBURG      SUNNY     81  64  57 CALM      30.09S
UNION CITY     SUNNY     81  70  69 CALM      30.08S
PARIS          SUNNY     82  69  64 SW3       30.10S
LEXINGTON      SUNNY     81  72  74 S3        30.09S
SAVANNAH       SUNNY     85  78  79 CALM      30.10S HX  96
$$

TNZ008-025-027-028-033-062-065-066-221600-
NORTH MIDDLE TENNESSEE

CITY           SKY/WX    TMP DP  RH WIND       PRES   REMARKS
NASHVILLE      PTSUNNY   84  72  67 S9        30.12F
DICKSON        MOSUNNY   82  72  69 S3        30.11S
PORTLAND       SUNNY     82  72  69 S9        30.11F
CLARKSVILLE    SUNNY     84  71  65 VRB3      30.09F
LEBANON        SUNNY     83  71  66 S8        30.11
SMYRNA         MOSUNNY   85  74  69 VRB6      30.13F HX  92
MURFREESBORO   SUNNY     82  71  69 SE8       30.12
COOKEVILLE     MOSUNNY   82  72  69 CALM      30.16S
LIVINGSTON       N/A     79  69  71 SW7       30.17F
GALLATIN       MOSUNNY   83  74  74 S5        30.13F
CROSSVILLE     SUNNY     78  65  63 S6        30.20F
$$

TNZ061-075-076-078-094-096-097-221600-
SOUTH MIDDLE TENNESSEE

CITY           SKY/WX    TMP DP  RH WIND       PRES   REMARKS
LEWISBURG      MOSUNNY   81  71  71 S8        30.12F
FAYETTEVILLE   MOSUNNY   79  72  78 S9        30.14F
TULLAHOMA      PTSUNNY   81  70  69 SE6       30.16F
WINCHESTER     MOSUNNY   79  72  78 SE5       30.15S
MCMINNVILLE    SUNNY     82  73  74 S6        30.15F
COLUMBIA       MOSUNNY   82  75  78 SE6       30.11S
SHELBYVILLE    MOSUNNY   82  73  74 S8        30.14F
$$

TNZ017-018-042-046-047-221600-
NORTHEAST TENNESSEE

CITY           SKY/WX    TMP DP  RH WIND       PRES   REMARKS
TRI CITIES     MOSUNNY   79  66  64 CALM      30.20S
ELIZABETHTON   SUNNY     79  66  65 E6        30.20S
$$

TNZ012-013-036-069-073-074-221600-
CENTRAL EAST TENNESSEE

CITY           SKY/WX    TMP DP  RH WIND       PRES   REMARKS
KNOXVILLE      PTSUNNY   79  69  71 NE3       30.16S
OAK RIDGE      PTSUNNY   81  69  67 VRB3      30.17S
GATLINBURG     PTSUNNY   75  66  73 CALM      30.16F
MORRISTOWN       N/A     79  70  73 CALM      30.19S
$$

TNZ083-085-099-221600-
SOUTHEAST TENNESSEE

CITY           SKY/WX    TMP DP  RH WIND       PRES   REMARKS
CHATTANOOGA    PTSUNNY   82  69  64 VRB3      30.16S
$$

SKY/WX REPORTED AS FAIR MEANS FEW OR NO CLOUDS BELOW
12 THOUSAND FEET.




USA.gov is the U.S. government's official web portal to all federal, state and local government web resources and services.